| time (UTC) | temp F | wind direction | speed knots | gust knots | rain 1hr in | rain 24hr in | rain mn in | humidity % | barometer mb |
| 20260503210056 | 61 | 244 | 0.0 | 0.0 | 0.00 | 0.00 | 0.00 | 64 | 1008.5 |
| 20260503204556 | 61 | 241 | 0.0 | 0.0 | 0.00 | 0.00 | 0.00 | 65 | 1008.4 |
| 20260503203107 | 61 | 243 | 0.0 | 0.0 | 0.00 | 0.00 | 0.00 | 65 | 1008.6 |
| 20260503201556 | 61 | 226 | 0.0 | 0.0 | 0.00 | 0.00 | 0.00 | 63 | 1008.6 |
| 20260503200053 | 59 | 274 | 0.0 | 0.0 | 0.00 | 0.00 | 0.00 | 68 | 1008.7 |
| 20260503194556 | 59 | 272 | 0.0 | 0.0 | 0.00 | 0.00 | 0.00 | 66 | 1008.8 |
| 20260503193053 | 59 | 233 | 0.0 | 0.0 | 0.00 | 0.00 | 0.00 | 67 | 1008.8 |
| 20260503191552 | 60 | 286 | 0.9 | 0.0 | 0.00 | 0.00 | 0.00 | 65 | 1008.8 |
| 20260503190050 | 61 | 215 | 0.9 | 0.0 | 0.00 | 0.00 | 0.00 | 65 | 1008.8 |
| 20260503184550 | 62 | 134 | 1.7 | 0.0 | 0.00 | 0.00 | 0.00 | 61 | 1008.7 |
| 20260503183048 | 61 | 210 | 1.7 | 0.0 | 0.00 | 0.00 | 0.00 | 67 | 1008.8 |
| 20260503181549 | 59 | 295 | 0.0 | 0.0 | 0.00 | 0.00 | 0.00 | 70 | 1008.8 |
| 20260503180040 | 58 | 250 | 0.9 | 0.0 | 0.00 | 0.00 | 0.00 | 72 | 1008.9 |
| 20260503174540 | 58 | 212 | 0.9 | 0.0 | 0.00 | 0.00 | 0.00 | 74 | 1008.8 |
| 20260503173051 | 56 | 274 | 1.7 | 0.0 | 0.00 | 0.00 | 0.00 | 77 | 1008.7 |
| 20260503171538 | 54 | 298 | 0.9 | 0.0 | 0.00 | 0.00 | 0.00 | 84 | 1008.7 |
| 20260503081547 | 52 | 255 | 0.0 | 0.0 | 0.00 | 0.00 | 0.00 | 84 | 1007.4 |
| 20260503071542 | 53 | 255 | 0.0 | 0.0 | 0.00 | 0.00 | 0.00 | 83 | 1007.6 |
| 20260503054537 | 53 | 252 | 0.0 | 0.0 | 0.00 | 0.00 | 0.00 | 83 | 1007.9 |
| 20260503053039 | 53 | 251 | 0.0 | 0.0 | 0.00 | 0.00 | 0.00 | 82 | 1007.9 |
| 20260503051533 | 53 | 250 | 0.0 | 0.0 | 0.00 | 0.00 | 0.00 | 82 | 1008.0 |
| 20260503050033 | 54 | 249 | 0.0 | 0.0 | 0.00 | 0.00 | 0.00 | 81 | 1008.0 |
| 20260503044535 | 54 | 145 | 0.0 | 0.0 | 0.00 | 0.00 | 0.00 | 81 | 1007.8 |
| 20260503043032 | 54 | 145 | 0.0 | 0.0 | 0.00 | 0.00 | 0.00 | 80 | 1007.7 |
| 20260503041533 | 54 | 145 | 0.0 | 0.0 | 0.00 | 0.00 | 0.00 | 80 | 1007.5 |
| 20260503040034 | 55 | 145 | 0.0 | 0.0 | 0.00 | 0.00 | 0.00 | 81 | 1007.5 |
| 20260503034531 | 55 | 145 | 0.0 | 0.0 | 0.00 | 0.00 | 0.00 | 80 | 1007.3 |
| 20260503031535 | 56 | 120 | 0.0 | 0.0 | 0.00 | 0.00 | 0.00 | 79 | 1007.0 |
| 20260503030030 | 56 | 126 | 0.0 | 0.0 | 0.00 | 0.00 | 0.00 | 78 | 1006.8 |
| 20260503024529 | 57 | 344 | 0.0 | 0.0 | 0.00 | 0.00 | 0.00 | 78 | 1006.6 |
| 20260503023042 | 58 | 344 | 0.9 | 0.0 | 0.00 | 0.00 | 0.00 | 77 | 1006.5 |
| 20260503021529 | 58 | 81 | 0.0 | 0.0 | 0.00 | 0.00 | 0.00 | 76 | 1006.4 |
| 20260503020028 | 59 | 95 | 0.0 | 0.0 | 0.00 | 0.00 | 0.00 | 76 | 1006.4 |
| 20260503014526 | 59 | 115 | 0.0 | 0.0 | 0.00 | 0.00 | 0.00 | 75 | 1006.5 |
| 20260503013027 | 60 | 126 | 0.0 | 0.0 | 0.00 | 0.00 | 0.00 | 74 | 1006.5 |
| 20260503011525 | 61 | 122 | 0.0 | 0.0 | 0.00 | 0.00 | 0.00 | 72 | 1006.5 |
| 20260503010031 | 62 | 161 | 0.0 | 0.0 | 0.00 | 0.00 | 0.00 | 72 | 1006.5 |
| 20260503004525 | 62 | 336 | 0.9 | 0.0 | 0.00 | 0.00 | 0.00 | 72 | 1006.4 |
| 20260503003024 | 62 | 94 | 0.9 | 0.0 | 0.00 | 0.00 | 0.00 | 70 | 1006.5 |
| 20260503001524 | 63 | 107 | 0.9 | 0.0 | 0.00 | 0.00 | 0.00 | 69 | 1006.5 |
| 20260503000026 | 64 | 127 | 0.9 | 0.0 | 0.00 | 0.00 | 0.00 | 70 | 1006.5 |
| 20260502234523 | 64 | 190 | 0.9 | 0.0 | 0.00 | 0.00 | 0.00 | 70 | 1006.6 |
| 20260502233020 | 63 | 360 | 0.0 | 0.0 | 0.00 | 0.00 | 0.00 | 71 | 1006.8 |
| 20260502231522 | 64 | 277 | 0.0 | 0.0 | 0.00 | 0.00 | 0.00 | 70 | 1006.8 |
| 20260502230018 | 65 | 263 | 0.9 | 0.0 | 0.00 | 0.00 | 0.00 | 68 | 1007.0 |
| 20260502224517 | 65 | 300 | 0.0 | 0.0 | 0.00 | 0.00 | 0.00 | 68 | 1007.2 |
| 20260502223015 | 65 | 130 | 0.9 | 0.0 | 0.00 | 0.00 | 0.00 | 68 | 1007.3 |
| 20260502221512 | 66 | 317 | 0.0 | 0.0 | 0.00 | 0.00 | 0.00 | 68 | 1007.7 |
| 20260502220012 | 66 | 130 | 1.7 | 0.0 | 0.00 | 0.00 | 0.00 | 69 | 1007.8 |
| 20260502214510 | 66 | 61 | 0.9 | 0.0 | 0.00 | 0.00 | 0.00 | 67 | 1007.9 |
| 20260502213013 | 66 | 309 | 0.9 | 0.0 | 0.00 | 0.00 | 0.00 | 68 | 1008.1 |
| 20260502211509 | 65 | 84 | 0.9 | 0.0 | 0.00 | 0.00 | 0.00 | 67 | 1008.1 |